KOSEN 1
1 49402U 21102H   25316.55100687  .00018126  00000-0  77315-3 0  9998
2 49402  97.3524 358.0775 0013323 249.9945 109.9857 15.22894929221005
HO-113
1 50466U 21131B   25316.86362234  .00001693  00000-0  53995-3 0  9993
2 50466  98.5068  45.4351 0004664  41.0871 319.0668 14.41052000203951
SNUGLITE 2
1 52899U 22065F   25316.65665103  .00003181  00000-0  61984-3 0  9991
2 52899  98.1903  97.3658 0007232 352.2866   7.8224 14.63708096179317
UmKA 1 (RS40S)
1 57172U 23091G   25316.81297763  .00018016  00000-0  89628-3 0  9999
2 57172  97.5388  11.4127 0014539 147.9897 212.2222 15.17580329131152
CubeBel-2 (EU11S)
1 57175U 23091K   25316.83609742  .00033012  00000-0  14006-2 0  9998
2 57175  97.5385  13.6668 0011907 150.8895 209.3008 15.22968217131301
SONATE-2
1 59112U 24043Q   25316.84024822  .00050982  00000-0  11541-2 0  9996
2 59112  97.5310  92.0288 0008703 274.0074  86.0178 15.42927544 94361
MO-122
1 60209U 24125G   25316.54185479  .00062856  00000-0  13785-2 0  9994
2 60209  97.2565 166.9415 0014268 299.3439  60.6384 15.43750154 75942
GRBBeta
1 60237U 24128C   25316.84409867  .00012547  00000-0  87731-3 0  9996
2 60237  61.9904 254.1054 0057017  90.4163 270.3463 15.04328514 73696
Curium One
1 60242U 24128H   25316.23763945  .00025264  00000-0  15780-2 0  9999
2 60242  61.9796 251.7968 0056860  87.0965 273.6634 15.08079136 73687
ROBUSTA-3A
1 60243U 24128J   25316.82552584  .00023701  00000-0  15056-2 0  9990
2 60243  61.9870 251.1357 0056645  84.7114 276.0439 15.07505960 73754
CatSat
1 60246U 24125J   25316.83253242  .00070035  00000-0  18414-2 0  9993
2 60246  97.2371 164.5910 0034090 255.3316 104.4150 15.37731649 73928
HYPERVIEW-1G (RS66S)
1 61772U 24199AP  25316.90935472  .00094869  00000-0  20032-2 0  9999
2 61772  97.3246 186.0347 0011298   2.1227 358.0067 15.44779070101005
AO-123
1 61781U 24199AY  25316.87894020  .00025989  00000-0  86178-3 0  9999
2 61781  97.3281 182.6692 0015373  10.0095 350.1449 15.31128521100773
ZIMSAT 2
1 61783U 24199BA  25316.90713043  .00287224  00000-0  32221-2 0  9991
2 61783  97.3160 188.6593 0008167   3.7330 356.3988 15.61683849104335
HADES-R (SO-124)
1 62690U 25009CK  25316.23630467  .00261503  00000-0  47138-2 0  9999
2 62690  97.3933  37.9195 0003075 250.3666 109.7253 15.48808266 46045
HYDRA-T
1 62692U 25009CM  25316.17586885  .00144656  00000-0  25699-2 0  9995
2 62692  97.3929  37.9996 0002883 246.6458 113.4490 15.49660759 46043
JINJUSat 1B
1 63210U 25052A   25316.16290396  .00020700  00000-0  82394-3 0  9997
2 63210  97.4202 208.5389 0005618 114.3826 245.7999 15.25268469 36921
NUSHSAT 1
1 63211U 25052B   25316.17708040  .00024078  00000-0  93394-3 0  9993
2 63211  97.4190 208.6371 0005470 117.7808 242.3985 15.26101347 36934
TEVEL2-4
1 63213U 25052D   25316.23114390  .00044884  00000-0  17626-2 0  9991
2 63213  97.4109 208.3043 0004238 123.9988 236.1653 15.25555534 36931
TEVEL2-5
1 63214U 25052E   25316.16967761  .00022208  00000-0  87826-3 0  9998
2 63214  97.4106 208.2344 0004185 124.6227 235.5406 15.25476568 36924
TEVEL2-6
1 63215U 25052F   25315.97923675  .00022972  00000-0  90992-3 0  9999
2 63215  97.4110 208.0352 0004140 125.8240 234.3383 15.25416420 36894
TEVEL2-1
1 63217U 25052H   25316.14687188  .00021419  00000-0  85611-3 0  9994
2 63217  97.4082 208.0369 0003836 133.9236 226.2319 15.25128692 36911
TEVEL2-3
1 63218U 25052J   25316.21206151  .00043210  00000-0  17173-2 0  9990
2 63218  97.4082 208.1060 0003814 137.2902 222.8633 15.25165003 36923
TEVEL2-2
1 63219U 25052K   25316.67252211  .00036404  00000-0  14477-2 0  9990
2 63219  97.4083 208.5578 0003800 136.1282 224.0258 15.25186838 36990
TEVEL2-9
1 63237U 25052AD  25316.67246289  .00034686  00000-0  14385-2 0  9996
2 63237  97.4143 208.3055 0006811 169.9901 190.1473 15.23769881 36964
TEVEL2-7
1 63238U 25052AE  25316.15822542  .00019861  00000-0  83108-3 0  9990
2 63238  97.4144 207.7769 0006865 171.2783 188.8574 15.23586197 36888
TEVEL2-8
1 63239U 25052AF  25316.22900520  .00041362  00000-0  17230-2 0  9995
2 63239  97.4151 207.8327 0006874 171.7274 188.4078 15.23578930 36890
HYDRA-W
1 63490U 25052BL  25316.65860275  .00099085  00000-0  27616-2 0  9997
2 63490  97.4081 210.1235 0008663 154.3690 205.7985 15.36354981 37098
HADES-ICM (SO-125)
1 63492U 25052BN  25316.22958368  .00139232  00000-0  40536-2 0  9998
2 63492  97.4090 209.4973 0008566 161.8068 198.3483 15.34813073 37016
Dragonfly
1 65729U 98067XH  25316.12271715  .00126999  00000-0  14007-2 0  9992
2 65729  51.6298 291.3442 0004615 112.7856 247.3626 15.62163930  8366
RSP-03
1 65732U 98067XL  25316.65553736  .00139118  00000-0  16027-2 0  9991
2 65732  51.6305 288.9039 0006300  93.9871 266.1842 15.60977269  8458
GHS-01
1 65733U 98067XM  25316.30061279  .00257762  00000-0  26727-2 0  9994
2 65733  51.6308 290.2844 0005291 112.5768 247.5787 15.63275703  8406
BOTAN
1 65942U 98067XP  25315.37847341  .00099617  00000-0  14017-2 0  9996
2 65942  51.6317 296.8738 0004800  56.4340 303.7109 15.55845999  4971
